Back to catalog

BREEZE-M DEB

AliveHEO
NORAD 38650·DEBRIS·🇷🇺 Russia

Launched Mar 14, 2008 from Baikonur Cosmodrome

Loading…

Next Passes (next 24 hours)

TLE

FreshSource: Space-Track

Epoch: Sep 8, 2026, 10:11 UTC

1 38650U 08011CZ  26251.42465117 -.00000308  00000-0 -77838-2 0  9996
2 38650  49.2730   1.1786 6380250 230.4678 240.2577  3.06766490177470

Track BREEZE-M DEB in real time with AllMySat

Download on the App Store